Time,TemperatureF,DewpointF,PressureIn,WindDirection,WindDirectionDegrees,WindSpeedMPH,WindSpeedGustMPH,Humidity,HourlyPrecipIn,Conditions,Clouds,dailyrainin,SoftwareType,DateUTC
2013-04-19 01:32:00,44.0,-99.9,-100.00,NNE,26,3.0,5.0,-999,-99.99,,,-99.99,,2013-04-19 06:32:00,
2013-04-19 01:42:00,44.0,-99.9,-100.00,NNE,26,3.0,5.0,-999,-99.99,,,-99.99,,2013-04-19 06:42:00,
2013-04-19 01:53:00,44.0,-99.9,-100.00,NNE,26,3.0,5.0,-999,-99.99,,,-99.99,,2013-04-19 06:53:00,
2013-04-19 04:33:00,40.0,-99.9,-100.00,NE,52,5.0,7.0,-999,-99.99,,,-99.99,,2013-04-19 09:33:00,
2013-04-19 04:43:00,40.0,-99.9,-100.00,NE,52,5.0,7.0,-999,-99.99,,,-99.99,,2013-04-19 09:43:00,
2013-04-19 07:50:00,38.0,-99.9,-100.00,NE,50,6.0,11.0,-999,-99.99,,,-99.99,,2013-04-19 12:50:00,
2013-04-19 08:32:00,38.0,-99.9,-100.00,NE,50,6.0,11.0,-999,-99.99,,,-99.99,,2013-04-19 13:32:00,
2013-04-19 08:42:00,38.0,-99.9,-100.00,NE,50,6.0,11.0,-999,-99.99,,,-99.99,,2013-04-19 13:42:00,
2013-04-19 09:10:00,47.0,-99.9,-100.00,ENE,58,4.0,9.0,-999,-99.99,,,-99.99,,2013-04-19 14:10:00,
2013-04-19 09:40:00,49.0,-99.9,-100.00,East,94,8.0,8.0,-999,-99.99,,,-99.99,,2013-04-19 14:40:00,
2013-04-19 09:52:00,47.0,-99.9,-100.00,ENE,58,4.0,9.0,-999,-99.99,,,-99.99,,2013-04-19 14:52:00,
2013-04-19 10:02:00,47.0,-99.9,-100.00,ENE,58,4.0,9.0,-999,-99.99,,,-99.99,,2013-04-19 15:02:00,
2013-04-19 10:22:00,49.0,-99.9,-100.00,East,94,8.0,8.0,-999,-99.99,,,-99.99,,2013-04-19 15:22:00,
2013-04-19 10:33:00,49.0,-99.9,-100.00,East,94,8.0,8.0,-999,-99.99,,,-99.99,,2013-04-19 15:33:00,
2013-04-19 10:40:00,52.0,-99.9,-100.00,NW,326,2.0,7.0,-999,-99.99,,,-99.99,,2013-04-19 15:40:00,
2013-04-19 11:23:00,52.0,-99.9,-100.00,NW,326,2.0,7.0,-999,-99.99,,,-99.99,,2013-04-19 16:23:00,
2013-04-19 11:33:00,52.0,-99.9,-100.00,NW,326,2.0,7.0,-999,-99.99,,,-99.99,,2013-04-19 16:33:00,
2013-04-19 13:33:00,61.0,-99.9,-100.00,North,1,1.0,5.0,-999,-99.99,,,-99.99,,2013-04-19 18:33:00,
2013-04-19 13:43:00,61.0,-99.9,-100.00,North,1,1.0,5.0,-999,-99.99,,,-99.99,,2013-04-19 18:43:00,
2013-04-19 15:52:00,67.0,-99.9,-100.00,NE,42,3.0,10.0,-999,-99.99,,,-99.99,,2013-04-19 20:52:00,
2013-04-19 16:01:00,67.0,-99.9,-100.00,NE,42,3.0,10.0,-999,-99.99,,,-99.99,,2013-04-19 21:01:00,
2013-04-19 21:10:00,58.0,-99.9,-100.00,North,357,3.0,8.0,-999,-99.99,,,-99.99,,2013-04-20 02:10:00,
2013-04-19 21:32:00,59.0,-99.9,-100.00,WSW,258,6.0,12.0,-999,-99.99,,,-99.99,,2013-04-20 02:32:00,
2013-04-19 21:42:00,59.0,-99.9,-100.00,WSW,258,6.0,12.0,-999,-99.99,,,-99.99,,2013-04-20 02:42:00,
2013-04-19 21:52:00,58.0,-99.9,-100.00,North,357,3.0,8.0,-999,-99.99,,,-99.99,,2013-04-20 02:52:00,
2013-04-19 22:01:00,58.0,-99.9,-100.00,North,357,3.0,8.0,-999,-99.99,,,-99.99,,2013-04-20 03:01:00,